Location: *
(42.3377°N, 71.0868°W)
Time: 04:54:04
(UTC+00:00)

Cosmos 2058 Rocket - Pass Details

Date: 09 April 2020
Orbit: 610 x 640 km, 82.5° (Epoch: 30 May)

Event Time Altitude Azimuth Distance (km) Brightness Sun altitude
Rises 23:43:35 0° 157° (SSE) 2,930 6.1 -5.1°
Reaches altitude 10° 23:46:06 10° 145° (SE) 2,026 5.2 -5.5°
Maximum altitude 23:49:49 26° 89° (E) 1,263 4.1 -6.2°
Drops below altitude 10° 23:53:33 10° 33° (NNE) 2,035 5.6 -6.9°
Sets 23:56:04 0° 21° (NNE) 2,946 6.5 -7.3°
